TimePDT,TemperatureF,Dew PointF,Humidity,Sea Level PressureIn,VisibilityMPH,Wind Direction,Wind SpeedMPH,Gust SpeedMPH,PrecipitationIn,Events,Conditions,WindDirDegrees,DateUTC
12:53 AM,45.0,16.0,31,30.07,-9999.0,SSW,12.7,-,N/A,,Unknown,200,2012-10-19 07:53:00
1:53 AM,44.1,17.1,34,30.06,-9999.0,South,12.7,-,N/A,,Unknown,180,2012-10-19 08:53:00
2:53 AM,42.1,16.0,35,30.05,-9999.0,SSW,13.8,-,N/A,,Unknown,200,2012-10-19 09:53:00
3:53 AM,39.0,15.1,38,30.06,-9999.0,SSW,6.9,-,N/A,,Unknown,200,2012-10-19 10:53:00
4:53 AM,41.0,15.1,35,30.05,-9999.0,SSW,11.5,-,N/A,,Unknown,200,2012-10-19 11:53:00
5:53 AM,39.9,15.1,36,30.08,-9999.0,SSW,9.2,-,N/A,,Unknown,200,2012-10-19 12:53:00
6:53 AM,36.0,14.0,41,30.13,-9999.0,SSW,8.1,-,N/A,,Unknown,200,2012-10-19 13:53:00
7:53 AM,43.0,16.0,34,30.10,-9999.0,South,9.2,-,N/A,,Unknown,190,2012-10-19 14:53:00
8:53 AM,48.9,17.1,28,30.12,-9999.0,WSW,9.2,-,N/A,,Unknown,240,2012-10-19 15:53:00
9:53 AM,57.0,18.0,22,30.10,-9999.0,SSW,3.5,-,N/A,,Unknown,210,2012-10-19 16:53:00
10:53 AM,66.9,19.9,17,30.05,-9999.0,WSW,6.9,-,N/A,,Unknown,240,2012-10-19 17:53:00
11:53 AM,70.0,21.9,16,30.02,-9999.0,WSW,9.2,-,N/A,,Unknown,250,2012-10-19 18:53:00
12:53 PM,72.0,23.0,16,29.96,-9999.0,NW,6.9,17.3,N/A,,Unknown,310,2012-10-19 19:53:00
1:53 PM,73.0,21.9,15,29.92,-9999.0,SSW,8.1,-,N/A,,Unknown,210,2012-10-19 20:53:00
2:53 PM,75.0,21.0,13,29.90,-9999.0,WSW,4.6,-,N/A,,Unknown,250,2012-10-19 21:53:00
3:53 PM,75.0,19.9,13,29.89,-9999.0,Variable,3.5,-,N/A,,Unknown,0,2012-10-19 22:53:00
4:53 PM,75.0,19.0,12,29.87,-9999.0,WSW,11.5,-,N/A,,Unknown,240,2012-10-19 23:53:00
5:53 PM,66.9,19.0,16,29.89,-9999.0,WSW,4.6,-,N/A,,Unknown,240,2012-10-20 00:53:00
6:53 PM,57.0,19.9,24,29.94,-9999.0,Calm,Calm,-,N/A,,Unknown,0,2012-10-20 01:53:00
7:53 PM,53.1,21.9,30,29.94,-9999.0,South,5.8,-,N/A,,Unknown,170,2012-10-20 02:53:00
8:53 PM,48.9,21.0,33,29.93,-9999.0,SSE,4.6,-,N/A,,Unknown,150,2012-10-20 03:53:00
9:53 PM,44.1,21.9,42,29.91,-9999.0,South,5.8,-,N/A,,Unknown,180,2012-10-20 04:53:00
10:53 PM,45.0,19.9,37,29.86,-9999.0,South,4.6,-,N/A,,Unknown,170,2012-10-20 05:53:00
11:53 PM,44.1,21.0,40,29.84,-9999.0,South,9.2,-,N/A,,Unknown,190,2012-10-20 06:53:00